When you browse on this site, cookies collect data to enhance your experience and personalize the content and advertising you see.
Visit our Privacy Policy to learn more. By continuing to use the site, you agree to this use of cookies and data.
  • en France
  • Liste des pays
  • À 7 jours
  • Température de l'eau
  • Carte météo
  • Widgets météo
  • user-avatar
    Se connecter

    Météo par heure à Bridlington

    Ce jour, 26 Mai, Mardi

    Heure Température Précipitation Vent Pression Humidité
    00:00 +10°C° 0 mm 2 m/s 773 mmHg 70%
    01:00 +11°C° 0 mm 3 m/s 773 mmHg 68%
    02:00 +11°C° 0 mm 3 m/s 773 mmHg 66%
    03:00 +12°C° 0 mm 3 m/s 773 mmHg 64%
    04:00 +12°C° 0 mm 3 m/s 773 mmHg 68%
    05:00 +12°C° 0 mm 4 m/s 773 mmHg 72%
    06:00 +13°C° 0 mm 4 m/s 774 mmHg 79%
    07:00 +14°C° 0 mm 3 m/s 774 mmHg 78%
    08:00 +17°C° 0 mm 3 m/s 774 mmHg 76%
    09:00 +18°C° 0 mm 3 m/s 774 mmHg 75%
    10:00 +19°C° 0 mm 2 m/s 774 mmHg 73%
    11:00 +19°C° 0 mm 2 m/s 774 mmHg 71%
    12:00 +20°C° 0 mm 2 m/s 774 mmHg 69%
    13:00 +20°C° 0 mm 2 m/s 774 mmHg 69%
    14:00 +20°C° 0 mm 2 m/s 774 mmHg 70%
    15:00 +20°C° 0 mm 2 m/s 774 mmHg 70%
    16:00 +19°C° 0 mm 2 m/s 774 mmHg 73%
    17:00 +18°C° 0 mm 2 m/s 774 mmHg 75%
    18:00 +18°C° 0 mm 3 m/s 774 mmHg 78%
    19:00 +16°C° 0 mm 2 m/s 775 mmHg 81%
    20:00 +15°C° 0 mm 2 m/s 775 mmHg 84%
    21:00 +13°C° 0 mm 2 m/s 775 mmHg 86%
    22:00 +13°C° 0 mm 2 m/s 775 mmHg 87%
    23:00 +12°C° 0 mm 1 m/s 775 mmHg 88%

    Demain, 27 Mai, Mercredi

    Heure Température Précipitation Vent Pression Humidité
    00:00 +12°C° 0 mm 1 m/s 775 mmHg 90%
    01:00 +11°C° 0 mm 1 m/s 775 mmHg 89%
    02:00 +11°C° 0 mm 1 m/s 775 mmHg 89%
    03:00 +11°C° 0 mm 1 m/s 775 mmHg 89%
    04:00 +11°C° 0 mm 1 m/s 775 mmHg 87%
    05:00 +12°C° 0 mm 2 m/s 775 mmHg 84%
    06:00 +13°C° 0 mm 2 m/s 775 mmHg 82%
    07:00 +14°C° 0 mm 2 m/s 775 mmHg 76%
    08:00 +16°C° 0 mm 2 m/s 776 mmHg 70%
    09:00 +17°C° 0 mm 2 m/s 776 mmHg 64%
    10:00 +18°C° 0 mm 2 m/s 776 mmHg 61%
    11:00 +18°C° 0 mm 2 m/s 776 mmHg 57%
    12:00 +19°C° 0 mm 3 m/s 776 mmHg 54%
    13:00 +18°C° 0 mm 3 m/s 775 mmHg 57%
    14:00 +18°C° 0 mm 2 m/s 775 mmHg 61%
    15:00 +17°C° 0 mm 2 m/s 775 mmHg 64%
    16:00 +16°C° 0 mm 2 m/s 775 mmHg 66%
    17:00 +14°C° 0 mm 2 m/s 775 mmHg 68%
    18:00 +13°C° 0 mm 2 m/s 775 mmHg 70%
    19:00 +12°C° 0 mm 1 m/s 775 mmHg 72%
    20:00 +11°C° 0 mm 1 m/s 775 mmHg 73%
    21:00 +10°C° 0 mm 1 m/s 776 mmHg 75%
    22:00 +10°C° 0 mm 1 m/s 776 mmHg 75%
    23:00 +10°C° 0 mm 1 m/s 775 mmHg 75%

    Après-demain, 28 Mai, Jeudi

    Heure Température Précipitation Vent Pression Humidité
    00:00 +10°C° 0 mm 1 m/s 775 mmHg 74%
    01:00 +10°C° 0 mm 1 m/s 775 mmHg 73%
    02:00 +11°C° 0 mm 1 m/s 775 mmHg 71%
    03:00 +11°C° 0 mm 1 m/s 775 mmHg 69%
    04:00 +12°C° 0 mm 1 m/s 775 mmHg 70%
    05:00 +12°C° 0 mm 1 m/s 775 mmHg 72%
    06:00 +13°C° 0 mm 1 m/s 774 mmHg 74%
    07:00 +14°C° 0 mm 1 m/s 774 mmHg 72%
    08:00 +16°C° 0 mm 2 m/s 774 mmHg 71%
    09:00 +17°C° 0 mm 3 m/s 774 mmHg 69%
    10:00 +18°C° 0 mm 3 m/s 774 mmHg 68%
    11:00 +19°C° 0 mm 3 m/s 774 mmHg 67%
    12:00 +20°C° 0 mm 4 m/s 773 mmHg 66%
    13:00 +21°C° 0 mm 4 m/s 773 mmHg 66%
    14:00 +21°C° 0 mm 4 m/s 772 mmHg 66%
    15:00 +21°C° 0 mm 4 m/s 772 mmHg 66%
    16:00 +20°C° 0 mm 4 m/s 772 mmHg 70%
    17:00 +19°C° 0 mm 4 m/s 772 mmHg 74%
    18:00 +19°C° 0 mm 4 m/s 771 mmHg 78%
    19:00 +17°C° 0 mm 4 m/s 771 mmHg 81%
    20:00 +14°C° 0 mm 4 m/s 771 mmHg 84%
    21:00 +12°C° 0 mm 4 m/s 771 mmHg 87%
    22:00 +12°C° 0 mm 4 m/s 771 mmHg 87%
    23:00 +12°C° 0 mm 3 m/s 771 mmHg 87%

    29 Mai, Vendredi

    Heure Température Précipitation Vent Pression Humidité
    00:00 +11°C° 0 mm 3 m/s 771 mmHg 87%
    01:00 +11°C° 0 mm 3 m/s 771 mmHg 88%
    02:00 +11°C° 0 mm 3 m/s 771 mmHg 89%
    03:00 +10°C° 0 mm 3 m/s 770 mmHg 90%
    04:00 +12°C° 0 mm 2 m/s 770 mmHg 88%
    05:00 +13°C° 0 mm 2 m/s 770 mmHg 85%
    06:00 +14°C° 0 mm 2 m/s 770 mmHg 83%
    07:00 +16°C° 0 mm 3 m/s 770 mmHg 77%
    08:00 +17°C° 0 mm 3 m/s 770 mmHg 71%
    09:00 +19°C° 0 mm 3 m/s 770 mmHg 66%
    10:00 +20°C° 0 mm 3 m/s 770 mmHg 63%
    11:00 +21°C° 0 mm 4 m/s 769 mmHg 60%
    12:00 +22°C° 0 mm 4 m/s 769 mmHg 57%
    13:00 +22°C° 0 mm 4 m/s 769 mmHg 59%
    14:00 +22°C° 0 mm 4 m/s 769 mmHg 60%
    15:00 +22°C° 0 mm 4 m/s 768 mmHg 61%
    16:00 +21°C° 0 mm 4 m/s 768 mmHg 65%
    17:00 +20°C° 0 mm 4 m/s 768 mmHg 69%
    18:00 +19°C° 0 mm 4 m/s 768 mmHg 74%
    19:00 +17°C° 0 mm 4 m/s 768 mmHg 76%
    20:00 +14°C° 0 mm 4 m/s 768 mmHg 78%
    21:00 +12°C° 0 mm 4 m/s 768 mmHg 80%
    22:00 +12°C° 0 mm 4 m/s 768 mmHg 80%
    23:00 +11°C° 0 mm 3 m/s 768 mmHg 80%

    30 Mai, Samedi

    Heure Température Précipitation Vent Pression Humidité
    00:00 +11°C° 0 mm 3 m/s 768 mmHg 80%
    01:00 +11°C° 0 mm 3 m/s 768 mmHg 83%
    02:00 +11°C° 0 mm 3 m/s 768 mmHg 86%
    03:00 +11°C° 0 mm 3 m/s 768 mmHg 89%
    04:00 +13°C° 0 mm 2 m/s 768 mmHg 86%
    05:00 +13°C° 0 mm 2 m/s 768 mmHg 83%
    06:00 +14°C° 0 mm 2 m/s 768 mmHg 80%
    07:00 +15°C° 0 mm 2 m/s 768 mmHg 75%
    08:00 +17°C° 0 mm 2 m/s 768 mmHg 70%
    09:00 +18°C° 0 mm 2 m/s 767 mmHg 66%
    10:00 +19°C° 0 mm 2 m/s 767 mmHg 64%
    11:00 +20°C° 0 mm 2 m/s 767 mmHg 63%
    12:00 +21°C° 0 mm 3 m/s 767 mmHg 61%
    13:00 +20°C° 0 mm 3 m/s 767 mmHg 62%
    14:00 +20°C° 0 mm 3 m/s 767 mmHg 64%
    15:00 +20°C° 0 mm 3 m/s 767 mmHg 65%
    16:00 +19°C° 0 mm 3 m/s 767 mmHg 68%
    17:00 +18°C° 0 mm 3 m/s 767 mmHg 71%
    18:00 +17°C° 0 mm 3 m/s 766 mmHg 75%
    19:00 +14°C° 0 mm 3 m/s 767 mmHg 78%
    20:00 +13°C° 0 mm 3 m/s 767 mmHg 82%
    21:00 +11°C° 0 mm 3 m/s 767 mmHg 85%
    22:00 +10°C° 0 mm 3 m/s 767 mmHg 86%
    23:00 +10°C° 0 mm 3 m/s 767 mmHg 88%

    31 Mai, Dimanche

    Heure Température Précipitation Vent Pression Humidité
    00:00 +9°C° 0 mm 2 m/s 767 mmHg 89%
    01:00 +9°C° 0 mm 2 m/s 767 mmHg 89%
    02:00 +9°C° 0 mm 2 m/s 766 mmHg 90%
    03:00 +8°C° 0 mm 2 m/s 766 mmHg 90%
    04:00 +9°C° 0 mm 2 m/s 766 mmHg 88%
    05:00 +12°C° 0 mm 2 m/s 766 mmHg 85%
    06:00 +13°C° 0 mm 2 m/s 766 mmHg 83%
    07:00 +14°C° 0 mm 2 m/s 766 mmHg 78%
    08:00 +14°C° 0 mm 3 m/s 766 mmHg 73%
    09:00 +17°C° 0 mm 3 m/s 766 mmHg 68%
    10:00 +17°C° 0 mm 3 m/s 766 mmHg 67%
    11:00 +18°C° 0 mm 3 m/s 766 mmHg 67%
    12:00 +18°C° 0 mm 4 m/s 766 mmHg 67%
    13:00 +18°C° 0 mm 4 m/s 765 mmHg 69%
    14:00 +18°C° 0 mm 4 m/s 765 mmHg 71%
    15:00 +18°C° 0 mm 4 m/s 765 mmHg 73%
    16:00 +17°C° 0 mm 4 m/s 765 mmHg 75%
    17:00 +17°C° 0 mm 4 m/s 765 mmHg 78%
    18:00 +15°C° 0 mm 4 m/s 764 mmHg 80%
    19:00 +14°C° 0 mm 4 m/s 764 mmHg 84%
    20:00 +12°C° 0 mm 4 m/s 764 mmHg 88%
    21:00 +11°C° 0 mm 4 m/s 764 mmHg 93%
    22:00 +11°C° 0 mm 4 m/s 764 mmHg 91%
    23:00 +10°C° 0 mm 4 m/s 764 mmHg 90%
    Voir plus